Weather History for Cherokee, IA

Change the Weather History Date:

Friday, September 28, 2012

  Actual Average Record
Temperature  
Mean Temperature 56 °F -  
Max Temperature 77 °F 71 °F 88 °F (1952)
Min Temperature 34 °F 42 °F 25 °F (1961)
Degree Days  
Heating Degree Days 10    
Growing Degree Days 6 (Base 50)    
Moisture  
Dew Point 34 °F    
Average Humidity 58    
Maximum Humidity 94    
Minimum Humidity 15    
Precipitation  
Precipitation 0.00 in - - ()
Sea Level Pressure  
Sea Level Pressure 30.17 in    
Wind  
Wind Speed 1 mph (ESE)    
Max Wind Speed 7 mph    
Max Gust Speed -    
Visibility 10 miles    
Events      
Averages and records for this station are not official NWS values.
T = Trace of Precipitation, MM = Missing Value Source: NWS Daily Summary

Daily Weather History Graph

Daily Weather History Graph

Search for Another Location

Airport:

Trip Planner

Search our weather history database for the weather conditions in past years. The results will help you decide how hot, cold, wet, or windy it might be!

Date:

Astronomy

Sep. 28, 2012 Rise Set
Actual Time 7:16 AM CDT 7:07 PM CDT
Civil Twilight 6:48 AM CDT 7:36 PM CDT
Nautical Twilight 6:15 AM CDT 8:08 PM CDT
Astronomical Twilight 5:42 AM CDT 8:42 PM CDT
Moon 6:10 PM CDT 5:47 AM CDT
Length of Visible Light 12h 47m
Length of Day
11h 51m
Waxing Gibbous, 98% of the Moon is Illuminated
Sep 28
Waxing Gibbous
Sep 29
Full
Oct 8
Last Quarter
Oct 15
New
Oct 21
First Quarter

Hourly Weather History & Observations

Time (CDT) Temp. Windchill Dew Point Humidity Pressure Visibility Wind Dir Wind Speed Gust Speed Precip Events Conditions
12:15 AM 39.6 °F - 35.4 °F 85% 30.17 in 10.0 mi Calm Calm - N/A   Clear
12:35 AM 41.4 °F - 36.5 °F 83% 30.17 in 10.0 mi Calm Calm - N/A   Clear
12:55 AM 41.0 °F - 36.5 °F 84% 30.16 in 10.0 mi Calm Calm - N/A   Clear
1:15 AM 41.0 °F 39.0 °F 36.3 °F 83% 30.17 in 10.0 mi NE 3.5 mph - N/A   Clear
1:35 AM 41.0 °F 39.0 °F 36.1 °F 83% 30.17 in 10.0 mi NNE 3.5 mph - N/A   Clear
1:55 AM 39.4 °F - 35.6 °F 86% 30.17 in 10.0 mi Calm Calm - N/A   Clear
2:15 AM 38.7 °F 36.3 °F 34.9 °F 86% 30.17 in 10.0 mi NNE 3.5 mph - N/A   Clear
2:35 AM 37.0 °F - 33.8 °F 88% 30.17 in 10.0 mi Calm Calm - N/A   Clear
2:55 AM 38.3 °F - 34.9 °F 87% 30.17 in 10.0 mi Calm Calm - N/A   Clear
3:15 AM 37.8 °F 34.2 °F 34.9 °F 89% 30.17 in 10.0 mi NNE 4.6 mph - N/A   Clear
3:35 AM 38.8 °F 35.4 °F 35.2 °F 87% 30.17 in 10.0 mi NE 4.6 mph - N/A   Clear
3:55 AM 37.8 °F - 34.5 °F 88% 30.18 in 10.0 mi Calm Calm - N/A   Clear
4:15 AM 36.0 °F - 33.8 °F 92% 30.18 in 10.0 mi Calm Calm - N/A   Clear
4:35 AM 34.7 °F - 33.3 °F 94% 30.17 in 10.0 mi Calm Calm - N/A   Clear
4:55 AM 36.7 °F 32.9 °F 34.3 °F 91% 30.17 in 10.0 mi NNE 4.6 mph - N/A   Clear
5:15 AM 36.0 °F 31.1 °F 34.0 °F 93% 30.17 in 10.0 mi NNE 5.8 mph - N/A   Clear
5:35 AM 35.6 °F - 34.0 °F 94% 30.17 in 10.0 mi Calm Calm - N/A   Clear
5:55 AM 35.6 °F - 33.8 °F 93% 30.18 in 10.0 mi Calm Calm - N/A   Clear
6:15 AM 35.6 °F - 33.1 °F 91% 30.18 in 10.0 mi Calm Calm - N/A   Clear
6:35 AM 35.8 °F 33.0 °F 33.8 °F 92% 30.18 in 10.0 mi NE 3.5 mph - N/A   Clear
6:55 AM 35.6 °F - 33.4 °F 92% 30.18 in 10.0 mi Calm Calm - N/A   Clear
7:15 AM 34.2 °F - 32.4 °F 93% 30.18 in 10.0 mi Calm Calm - N/A   Clear
7:35 AM 34.3 °F - 32.9 °F 94% 30.19 in 7.0 mi Calm Calm - N/A   Clear
7:55 AM 34.0 °F - 32.4 °F 94% 30.19 in 10.0 mi Calm Calm - N/A   Clear
8:15 AM 36.1 °F - 34.2 °F 93% 30.20 in 10.0 mi Calm Calm - N/A   Clear
8:35 AM 39.4 °F - 36.0 °F 88% 30.20 in 7.0 mi Calm Calm - N/A   Clear
8:55 AM 42.1 °F - 37.0 °F 82% 30.21 in 7.0 mi Calm Calm - N/A   Clear
9:15 AM 44.2 °F - 37.9 °F 79% 30.22 in 10.0 mi Calm Calm - N/A   Clear
9:35 AM 47.8 °F - 39.2 °F 72% 30.22 in 10.0 mi Calm Calm - N/A   Clear
9:55 AM 51.4 °F - 40.5 °F 66% 30.22 in 10.0 mi Calm Calm - N/A   Clear
10:15 AM 55.0 °F - 40.5 °F 58% 30.23 in 10.0 mi Calm Calm - N/A   Clear
10:35 AM 57.9 °F - 40.1 °F 52% 30.23 in 10.0 mi Calm Calm - N/A   Clear
10:55 AM 59.7 °F - 41.2 °F 50% 30.22 in 10.0 mi Calm Calm - N/A   Clear
11:15 AM 62.6 °F - 41.4 °F 46% 30.22 in 10.0 mi Calm Calm - N/A   Clear
11:35 AM 64.9 °F - 41.2 °F 42% 30.22 in 10.0 mi Calm Calm - N/A   Clear
11:55 AM 68.9 °F - 39.6 °F 34% 30.21 in 10.0 mi Calm Calm - N/A   Clear
12:15 PM 70.9 °F - 38.7 °F 31% 30.20 in 10.0 mi Calm Calm - N/A   Clear
12:35 PM 72.5 °F - 34.0 °F 24% 30.19 in 10.0 mi Calm Calm - N/A   Clear
1:15 PM 73.9 °F - 29.8 °F 20% 30.19 in 10.0 mi Calm Calm - N/A   Clear
1:35 PM 75.4 °F - 28.6 °F 18% 30.18 in 10.0 mi Calm Calm - N/A   Clear
2:15 PM 76.5 °F - 28.2 °F 17% 30.16 in 10.0 mi South 3.5 mph - N/A   Clear
2:35 PM 76.1 °F - 27.5 °F 17% 30.15 in 10.0 mi SSW 6.9 mph - N/A   Clear
2:55 PM 76.3 °F - 27.5 °F 17% 30.15 in 10.0 mi South 5.8 mph - N/A   Clear
3:15 PM 76.6 °F - 27.0 °F 16% 30.15 in 10.0 mi Calm Calm - N/A   Clear
3:35 PM 77.2 °F - 26.8 °F 16% 30.14 in 10.0 mi South 6.9 mph - N/A   Clear
3:55 PM 75.4 °F - 25.5 °F 16% 30.14 in 10.0 mi SW 6.9 mph - N/A   Clear
4:15 PM 76.5 °F - 25.2 °F 15% 30.14 in 10.0 mi SW 6.9 mph - N/A   Clear
4:35 PM 76.3 °F - 24.6 °F 15% 30.13 in 10.0 mi SW 3.5 mph - N/A   Clear
4:55 PM 76.1 °F - 24.6 °F 15% 30.12 in 10.0 mi SW 4.6 mph - N/A   Clear
5:15 PM 75.7 °F - 24.8 °F 15% 30.12 in 10.0 mi Calm Calm - N/A   Clear
5:35 PM 75.7 °F - 24.4 °F 15% 30.12 in 10.0 mi SSE 4.6 mph - N/A   Clear
5:55 PM 75.7 °F - 25.7 °F 16% 30.12 in 10.0 mi Calm Calm - N/A   Clear
6:15 PM 74.7 °F - 28.0 °F 18% 30.12 in 10.0 mi Calm Calm - N/A   Clear
6:35 PM 71.4 °F - 29.8 °F 21% 30.12 in 10.0 mi Calm Calm - N/A   Clear
6:55 PM 67.6 °F - 30.2 °F 25% 30.12 in 10.0 mi East 3.5 mph - N/A   Clear
7:15 PM 64.6 °F - 28.8 °F 26% 30.12 in 10.0 mi East 4.6 mph - N/A   Clear
7:35 PM 58.1 °F - 30.7 °F 35% 30.12 in 10.0 mi Calm Calm - N/A   Clear
7:55 PM 56.8 °F - 31.5 °F 38% 30.13 in 10.0 mi Calm Calm - N/A   Clear
8:15 PM 54.9 °F - 32.4 °F 42% 30.13 in 7.0 mi Calm Calm - N/A   Clear
8:35 PM 54.5 °F - 32.5 °F 43% 30.14 in 10.0 mi Calm Calm - N/A   Clear
8:55 PM 53.2 °F - 39.0 °F 59% 30.14 in 10.0 mi Calm Calm - N/A   Clear
9:15 PM 51.6 °F - 38.1 °F 60% 30.14 in 10.0 mi Calm Calm - N/A   Clear
9:35 PM 51.1 °F - 37.9 °F 61% 30.15 in 10.0 mi Calm Calm - N/A   Clear
9:55 PM 48.7 °F - 37.0 °F 64% 30.15 in 7.0 mi Calm Calm - N/A   Clear
10:15 PM 48.2 °F - 37.0 °F 65% 30.16 in 10.0 mi Calm Calm - N/A   Clear
10:35 PM 46.8 °F - 36.9 °F 68% 30.16 in 7.0 mi Calm Calm - N/A   Clear
10:55 PM 46.0 °F - 38.8 °F 76% 30.16 in 7.0 mi Calm Calm - N/A   Clear
11:15 PM 45.5 °F - 35.2 °F 67% 30.16 in 10.0 mi Calm Calm - N/A   Clear
11:35 PM 46.6 °F - 35.8 °F 66% 30.16 in 10.0 mi Calm Calm - N/A   Clear
11:55 PM 44.2 °F - 36.1 °F 73% 30.16 in 10.0 mi Calm Calm - N/A   Clear